Waarnemingen

Advertentie
Mijn weer
Storlien-Visjovalen A, Zweden (2207): temperatuur & dauwpunt: 09.08.2018 04:00:00 - 15.08.2018 04:00:00 (CEST)Storlien-Visjovalen A, Zweden (2207): windsnelheid & windstoten: 09.08.2018 04:00:00 - 15.08.2018 04:00:00 (CEST)Storlien-Visjovalen A, Zweden (2207): windrichting: 09.08.2018 04:00:00 - 15.08.2018 04:00:00 (CEST)Storlien-Visjovalen A, Zweden (2207): luchtdruk: 09.08.2018 04:00:00 - 15.08.2018 04:00:00 (CEST)Storlien-Visjovalen A, Zweden (2207): zicht: 09.08.2018 04:00:00 - 15.08.2018 04:00:00 (CEST)Storlien-Visjovalen A, Zweden (2207): neerslag: 09.08.2018 04:00:00 - 15.08.2018 04:00:00 (CEST)
Datum & Tijd tt [°C] td [°C] ff [km/u] ff [kn] fx [km/u] fx [kn] dd ppp [hPa] vv [km] rr [mm]
15.08.2018 04:00:00 5,2 4,6 0 0 5 3 N 1009,9 0,8 0,0
15.08.2018 03:00:00 5,4 4,8 0 0 4 2 N 1010,0 26 0,0
15.08.2018 02:00:00 5,2 4,6 3 1 4 2 WNW 1010,0 31 0,0
15.08.2018 01:00:00 5,6 5,0 0 0 4 2 N 1010,1 22 0,0
15.08.2018 00:00:00 6,6 6,0 0 0 4 2 N 1009,7 36 0,0
14.08.2018 23:00:00 6,0 5,1 3 2 5 3 WNW 1009,9 46 0,0
14.08.2018 22:00:00 7,6 6,5 0 0 5 3 N 1009,4 50 0,0
14.08.2018 21:00:00 10,0 8,4 3 2 6 3 W 1008,6 50 0,0
14.08.2018 20:00:00 12,2 9,9 0 0 19 10 N 1007,9 50 0,0
14.08.2018 19:00:00 11,9 10,1 2 1 22 12 ZO 1007,7 50 0,7
14.08.2018 18:00:00 13,1 6,4 11 6 22 12 W 1007,5 16 0,1
14.08.2018 17:00:00 15,9 7,1 7 4 17 9 NW 1006,5 50 0,0
14.08.2018 16:00:00 15,6 6,9 8 5 17 9 NNW 1006,6 50 0,0
14.08.2018 15:00:00 16,7 7,1 6 3 14 8 NW 1006,4 48 0,0
14.08.2018 14:00:00 15,9 6,1 4 2 14 7 WNW 1006,6 50 0,0
14.08.2018 13:00:00 15,3 7,3 5 3 14 7 O 1006,9 50 0,0
14.08.2018 12:00:00 13,9 6,5 5 3 13 7 OZO 1007,7 49 0,0
14.08.2018 11:00:00 12,7 6,5 3 2 13 7 ONO 1008,3 50 0,0
14.08.2018 10:00:00 9,8 5,8 3 1 10 5 OZO 1009,5 50 0,0
14.08.2018 09:00:00 8,0 4,9 4 2 8 4 OZO 1010,2 50 0,0
14.08.2018 08:00:00 5,6 5,0 0 0 4 2 N 1011,0 50 0,0
14.08.2018 07:00:00 3,4 2,8 0 0 4 2 N 1011,8 50 0,0
14.08.2018 06:00:00 1,2 0,6 0 0 6 3 N 1012,5 21 0,0
14.08.2018 05:00:00 2,2 1,6 2 1 6 3 NO 1012,6 33 0,0
14.08.2018 04:00:00 2,8 2,1 3 2 6 3 ZW 1012,6 35 0,0
14.08.2018 03:00:00 3,7 3,1 0 0 6 3 N 1012,7 50 0,0
14.08.2018 02:00:00 2,2 1,5 3 2 6 3 NW 1013,0 38 0,0
14.08.2018 01:00:00 3,2 2,3 3 2 5 3 WNW 1012,7 46 0,0
14.08.2018 00:00:00 5,3 4,3 2 1 4 2 NW 1012,1 50 0,0
13.08.2018 23:00:00 6,8 5,6 0 0 5 3 N 1011,7 50 0,0
13.08.2018 22:00:00 7,4 5,9 3 2 14 8 ZZW 1011,6 12 0,0
13.08.2018 21:00:00 8,2 5,8 4 2 19 10 WNW 1011,6 50 0,0
13.08.2018 20:00:00 9,0 5,9 10 6 27 14 NW 1011,0 50 0,0
13.08.2018 19:00:00 9,4 5,9 12 6 29 15 NW 1010,9 50 0,0
13.08.2018 18:00:00 10,9 3,4 16 9 29 15 WNW 1010,6 50 0,0
13.08.2018 17:00:00 10,6 5,8 11 6 27 14 WNW 1010,9 50 0,0
13.08.2018 16:00:00 9,2 7,0 15 8 31 17 NW 1011,3 16 0,0
13.08.2018 15:00:00 10,4 6,4 10 6 31 17 NW 1010,7 50 0,0
13.08.2018 14:00:00 10,1 6,4 10 5 28 15 NW 1010,8 50 0,0
13.08.2018 13:00:00 9,6 5,4 10 6 30 16 NW 1010,9 41 0,0
13.08.2018 12:00:00 9,2 5,2 16 8 30 16 NW 1010,8 41 0,0
13.08.2018 11:00:00 8,7 6,1 14 8 27 15 WNW 1010,7 37 0,0
13.08.2018 10:00:00 8,1 6,6 14 7 27 15 NW 1010,7 42 0,1
13.08.2018 09:00:00 7,9 6,8 13 7 29 16 NW 1010,1 3,9 0,0
13.08.2018 08:00:00 7,6 6,5 15 8 29 16 WNW 1010,1 50 0,0
13.08.2018 07:00:00 7,5 6,6 13 7 31 17 WNW 1009,8 43 0,1
13.08.2018 06:00:00 7,2 6,3 12 6 37 20 WNW 1009,7 17 0,0
13.08.2018 05:00:00 7,1 6,4 8 4 37 20 W 1009,5 4,4 0,2
13.08.2018 04:00:00 7,1 6,0 17 9 35 19 W 1009,5 4,8 0,0
13.08.2018 03:00:00 7,2 6,1 14 8 30 16 W 1009,8 50 0,0
13.08.2018 02:00:00 7,3 6,2 13 7 34 18 W 1009,7 23 0,0
13.08.2018 01:00:00 7,2 6,0 14 7 34 18 W 1010,1 13 0,0
13.08.2018 00:00:00 7,2 6,0 16 9 33 18 W 1010,0 45 0,1
12.08.2018 23:00:00 7,1 5,9 18 10 30 16 W 1010,0 50 0,4
12.08.2018 22:00:00 7,8 5,9 14 8 32 17 W 1010,0 50 0,0
12.08.2018 21:00:00 8,0 5,6 14 8 35 19 W 1009,9 50 0,0
12.08.2018 20:00:00 8,5 5,6 18 10 38 20 W 1009,8 50 0,0
12.08.2018 19:00:00 9,3 5,1 16 9 38 20 W 1009,5 50 0,0
12.08.2018 18:00:00 9,6 5,4 19 10 37 20 W 1009,2 50 0,0
12.08.2018 17:00:00 11,6 5,2 18 10 35 19 WNW 1008,6 50 0,0
12.08.2018 16:00:00 10,2 5,8 14 7 35 19 WNW 1009,4 30 0,0
12.08.2018 15:00:00 10,0 5,8 14 7 31 17 W 1009,7 30 0,0
12.08.2018 14:00:00 8,8 6,1 16 9 35 19 WNW 1010,1 31 0,0
12.08.2018 13:00:00 9,4 7,0 15 8 35 19 WNW 1009,9 29 0,0
12.08.2018 12:00:00 10,5 5,1 16 8 29 16 WNW 1009,4 49 0,0
12.08.2018 11:00:00 9,0 5,7 12 7 23 12 WNW 1009,9 50 0,0
12.08.2018 10:00:00 8,1 5,6 10 6 20 11 NW 1010,3 50 0,0
12.08.2018 09:00:00 8,1 4,9 11 6 23 13 WNW 1010,4 50 0,0
12.08.2018 08:00:00 7,7 5,5 9 5 23 13 NW 1010,6 39 0,0
12.08.2018 07:00:00 7,1 5,2 7 4 13 7 W 1010,9 50 0,0
12.08.2018 06:00:00 6,4 5,2 0 0 15 8 N 1011,4 50 0,0
12.08.2018 05:00:00 6,3 4,8 5 3 15 8 W 1011,4 50 0,0
12.08.2018 04:00:00 6,9 5,2 8 4 19 11 W 1011,9 50 0,0
12.08.2018 03:00:00 6,8 5,3 8 4 19 11 W 1012,2 16 0,0
12.08.2018 02:00:00 5,4 4,5 5 3 11 6 W 1012,8 49 0,0
12.08.2018 01:00:00 4,8 3,9 3 1 11 6 ZZO 1013,4 50 0,0
12.08.2018 00:00:00 4,3 3,1 4 2 16 9 O 1013,9 50 0,0
11.08.2018 23:00:00 6,2 4,4 7 4 16 9 WZW 1013,5 50 0,0
11.08.2018 22:00:00 6,5 4,3 6 3 21 12 WZW 1013,6 50 0,0
11.08.2018 21:00:00 8,3 4,5 9 5 21 12 W 1013,0 50 0,0
11.08.2018 20:00:00 9,5 5,5 8 4 29 15 WNW 1012,6 50 0,0
11.08.2018 19:00:00 10,8 5,3 11 6 29 15 WNW 1012,4 50 0,0
11.08.2018 18:00:00 10,7 4,8 15 8 29 16 WNW 1012,4 50 0,0
11.08.2018 17:00:00 11,8 6,3 12 6 34 18 WNW 1012,1 50 0,0
11.08.2018 16:00:00 11,0 6,9 18 10 41 22 WNW 1012,2 38 0,0
11.08.2018 15:00:00 10,5 6,8 21 11 41 22 W 1012,3 22 0,0
11.08.2018 14:00:00 10,2 6,0 18 10 48 26 W 1012,0 41 0,0
11.08.2018 13:00:00 10,3 6,3 19 10 48 26 W 1011,4 50 0,0
11.08.2018 12:00:00 10,6 5,8 27 14 55 30 W 1010,4 50 0,0
11.08.2018 11:00:00 8,8 6,9 23 13 59 32 W 1010,2 6 0,0
11.08.2018 10:00:00 10,2 6,0 29 15 59 32 W 1008,7 50 0,0
11.08.2018 09:00:00 9,4 6,3 29 15 54 29 W 1007,9 50 0,0
11.08.2018 08:00:00 8,9 6,2 27 15 61 33 W 1006,8 50 0,0
11.08.2018 07:00:00 7,6 5,7 22 12 65 35 W 1006,4 25 0,0
11.08.2018 06:00:00 7,6 5,9 32 17 67 36 W 1005,0 23 0,1
11.08.2018 05:00:00 8,2 7,1 35 19 67 36 W 1003,4 11 0,1
11.08.2018 04:00:00 8,9 7,7 29 16 67 36 W 1001,4 24 0,5
11.08.2018 03:00:00 9,6 8,5 33 18 64 34 W 999,2 9 2,3
11.08.2018 02:00:00 10,6 9,5 31 17 50 27 W 996,9 10 3,0
11.08.2018 01:00:00 9,9 8,7 19 10 35 19 Z 996,7 5 0,5
11.08.2018 00:00:00 11,3 8,3 16 9 33 18 Z 996,4 50 0,0
10.08.2018 23:00:00 12,5 8,2 11 6 33 18 Z 996,1 23 0,0
10.08.2018 22:00:00 13,5 8,3 14 8 38 21 ZZW 996,0 34 0,0
10.08.2018 21:00:00 14,7 8,9 11 6 47 26 Z 996,1 50 0,0
10.08.2018 20:00:00 15,0 8,9 20 11 47 26 Z 995,9 50 0,0
10.08.2018 19:00:00 15,7 12,1 21 11 39 21 ZO 996,0 10 0,3
10.08.2018 18:00:00 19,3 13,5 9 5 30 16 OZO 995,3 50 0,0
10.08.2018 17:00:00 16,6 13,3 13 7 24 13 OZO 997,2 50 0,0
10.08.2018 16:00:00 15,1 13,0 7 4 27 15 ZO 998,5 50 0,0
10.08.2018 15:00:00 13,2 12,3 9 5 27 15 O 1000,0 50 0,2
10.08.2018 14:00:00 12,7 11,9 9 5 23 13 OZO 1000,9 19 0,0
10.08.2018 13:00:00 12,4 11,5 5 3 23 13 ONO 1002,0 36 0,0
10.08.2018 12:00:00 11,6 10,8 8 4 23 12 OZO 1003,9 23 0,2
10.08.2018 11:00:00 11,2 10,4 4 2 16 9 ONO 1005,6 28 0,4
10.08.2018 10:00:00 11,1 10,3 3 2 13 7 OZO 1007,2 12 0,6
10.08.2018 09:00:00 11,0 10,2 2 1 9 5 O 1008,0 9 1,4
10.08.2018 08:00:00 10,4 9,8 3 2 9 5 ZW 1009,6 9 0,7
10.08.2018 07:00:00 10,0 9,2 3 1 9 5 N 1010,9 12 0,2
10.08.2018 06:00:00 8,8 8,2 0 0 4 2 N 1011,7 38 0,0
10.08.2018 05:00:00 8,2 7,4 0 0 4 2 N 1012,4 35 0,0
10.08.2018 04:00:00 8,4 7,6 2 1 5 3 NNW 1013,5 23 0,0
10.08.2018 03:00:00 8,9 8,0 0 0 5 3 N 1013,9 39 0,0
10.08.2018 02:00:00 9,4 8,3 0 0 5 3 N 1014,0 44 0,0
10.08.2018 01:00:00 10,3 9,1 2 1 5 3 ZZW 1014,1 50 0,0
10.08.2018 00:00:00 10,5 9,1 3 2 5 3 W 1014,1 48 0,0
09.08.2018 23:00:00 11,6 9,7 2 1 4 2 WZW 1013,4 50 0,0
09.08.2018 22:00:00 12,1 9,7 0 0 10 5 N 1013,3 50 0,0
09.08.2018 21:00:00 13,0 9,4 0 0 11 6 N 1013,2 50 0,0
09.08.2018 20:00:00 13,3 9,2 5 3 18 10 OZO 1013,0 50 0,0
09.08.2018 19:00:00 14,0 9,0 4 2 18 10 O 1012,9 50 0,0
09.08.2018 18:00:00 14,8 9,2 7 4 17 9 O 1012,5 50 0,0
09.08.2018 17:00:00 15,1 9,9 4 2 17 9 O 1012,6 50 0,0
09.08.2018 16:00:00 15,1 9,5 8 4 17 9 O 1012,3 49 0,0
09.08.2018 15:00:00 13,4 9,1 5 3 13 7 OZO 1013,0 48 0,0
09.08.2018 14:00:00 12,2 9,0 4 2 16 9 WNW 1013,0 50 0,0
09.08.2018 13:00:00 11,6 9,0 5 3 16 9 NNW 1013,0 50 0,0
09.08.2018 12:00:00 11,8 9,2 6 3 24 13 NNW 1012,3 50 0,0
09.08.2018 11:00:00 11,9 9,1 6 3 24 13 NNW 1012,0 50 0,0
09.08.2018 10:00:00 11,2 8,9 11 6 27 14 NW 1011,7 50 0,0
09.08.2018 09:00:00 10,4 8,8 10 5 29 16 NW 1011,3 40 0,0
09.08.2018 08:00:00 10,5 8,8 12 7 29 16 NW 1010,4 50 0,0
09.08.2018 07:00:00 12,0 10,1 2 1 27 14 W 1008,8 50 0,0
09.08.2018 06:00:00 11,7 9,9 5 3 50 27 ZO 1008,1 50 0,0
09.08.2018 05:00:00 11,6 9,8 16 9 50 27 NW 1006,9 17 0,0
09.08.2018 04:00:00 13,5 11,9 20 11 35 19 W 1005,2 29 0,2

tt = temperatuur
td = dauwpunt
ff = windsnelheid
fx = windstoten
dd = windrichting
ppp = luchtdruk
vv = zicht
rr = neerslag

Weerstations in de omgeving